| time (UTC) | temp F | wind direction | speed knots | gust knots | rain 1hr in | rain 24hr in | rain mn in | humidity % | barometer mb |
| 20260508051514 | 69 | 111 | 0.0 | 1.7 | 0.00 | 0.00 | 0.00 | 82 | 1012.0 |
| 20260508050013 | 69 | 142 | 0.0 | 0.9 | 0.00 | 0.00 | 0.00 | 81 | 1012.0 |
| 20260508044512 | 70 | 142 | 0.0 | 0.9 | 0.00 | 0.00 | 0.00 | 81 | 1011.9 |
| 20260508043012 | 70 | 142 | 0.0 | 0.9 | 0.00 | 0.00 | 0.00 | 80 | 1011.9 |
| 20260508041518 | 71 | 142 | 0.0 | 0.0 | 0.00 | 0.00 | 0.00 | 79 | 1012.0 |
| 20260508040010 | 72 | 142 | 0.0 | 0.0 | 0.00 | 0.00 | 0.00 | 79 | 1012.0 |
| 20260508034510 | 72 | 142 | 0.0 | 0.0 | 0.00 | 0.00 | 0.00 | 78 | 1011.7 |
| 20260508033009 | 73 | 142 | 0.0 | 0.0 | 0.00 | 0.00 | 0.00 | 78 | 1011.7 |
| 20260508031509 | 73 | 142 | 0.0 | 0.0 | 0.00 | 0.00 | 0.00 | 77 | 1011.6 |
| 20260508030018 | 74 | 142 | 0.0 | 0.9 | 0.00 | 0.00 | 0.00 | 77 | 1011.5 |
| 20260508024509 | 74 | 142 | 0.0 | 0.0 | 0.00 | 0.00 | 0.00 | 76 | 1011.4 |
| 20260508023007 | 75 | 142 | 0.0 | 1.7 | 0.00 | 0.00 | 0.00 | 76 | 1011.2 |
| 20260508021511 | 75 | 142 | 0.0 | 1.7 | 0.00 | 0.00 | 0.00 | 75 | 1011.1 |
| 20260508020006 | 76 | 155 | 0.0 | 2.6 | 0.00 | 0.00 | 0.00 | 74 | 1010.9 |
| 20260508014506 | 76 | 175 | 0.0 | 3.5 | 0.00 | 0.00 | 0.00 | 74 | 1010.9 |
| 20260508013005 | 77 | 162 | 0.9 | 4.3 | 0.00 | 0.00 | 0.00 | 73 | 1010.8 |
| 20260508011512 | 77 | 187 | 1.7 | 7.0 | 0.00 | 0.00 | 0.00 | 73 | 1010.7 |
| 20260508010005 | 78 | 161 | 1.7 | 5.2 | 0.00 | 0.00 | 0.00 | 73 | 1010.6 |
| 20260508004504 | 78 | 113 | 0.9 | 6.1 | 0.00 | 0.00 | 0.00 | 73 | 1010.6 |
| 20260508003004 | 78 | 116 | 2.6 | 7.8 | 0.00 | 0.00 | 0.00 | 73 | 1010.6 |
| 20260508001503 | 79 | 171 | 2.6 | 6.1 | 0.00 | 0.00 | 0.00 | 72 | 1010.5 |
| 20260508000003 | 79 | 161 | 2.6 | 7.0 | 0.00 | 0.00 | 0.00 | 72 | 1010.5 |
| 20260507234502 | 79 | 157 | 2.6 | 7.0 | 0.00 | 0.00 | 0.00 | 73 | 1010.6 |
| 20260507233003 | 79 | 163 | 4.3 | 9.6 | 0.00 | 0.00 | 0.00 | 73 | 1010.6 |
| 20260507231501 | 79 | 131 | 3.5 | 8.7 | 0.00 | 0.00 | 0.00 | 73 | 1010.6 |
| 20260507230002 | 79 | 150 | 1.7 | 8.7 | 0.00 | 0.00 | 0.00 | 73 | 1010.6 |
| 20260507224601 | 79 | 120 | 1.7 | 10.4 | 0.00 | 0.00 | 0.00 | 73 | 1010.8 |
| 20260507223103 | 80 | 173 | 2.6 | 13.0 | 0.00 | 0.00 | 0.00 | 72 | 1010.8 |
| 20260507221559 | 80 | 165 | 3.5 | 9.6 | 0.00 | 0.00 | 0.00 | 73 | 1010.9 |
| 20260507220059 | 81 | 161 | 5.2 | 9.6 | 0.00 | 0.00 | 0.00 | 73 | 1010.9 |
| 20260507214607 | 81 | 139 | 3.5 | 10.4 | 0.00 | 0.00 | 0.00 | 73 | 1011.0 |
| 20260507213105 | 81 | 137 | 3.5 | 9.6 | 0.00 | 0.00 | 0.00 | 74 | 1011.1 |
| 20260507211558 | 81 | 192 | 5.2 | 9.6 | 0.00 | 0.00 | 0.00 | 73 | 1011.3 |
| 20260507204557 | 81 | 144 | 5.2 | 11.3 | 0.00 | 0.00 | 0.00 | 74 | 1011.4 |
| 20260507203056 | 82 | 190 | 6.1 | 11.3 | 0.00 | 0.00 | 0.00 | 72 | 1011.5 |
| 20260507201555 | 82 | 147 | 3.5 | 11.3 | 0.00 | 0.00 | 0.00 | 72 | 1011.7 |
| 20260507200054 | 82 | 141 | 4.3 | 12.2 | 0.00 | 0.00 | 0.00 | 73 | 1011.8 |
| 20260507194618 | 82 | 175 | 4.3 | 10.4 | 0.00 | 0.00 | 0.00 | 73 | 1011.9 |
| 20260507193055 | 82 | 120 | 3.5 | 10.4 | 0.00 | 0.00 | 0.00 | 73 | 1012.1 |
| 20260507191552 | 83 | 150 | 4.3 | 9.6 | 0.00 | 0.00 | 0.00 | 71 | 1012.2 |
| 20260507190054 | 83 | 143 | 3.5 | 10.4 | 0.00 | 0.00 | 0.00 | 70 | 1012.3 |
| 20260507184551 | 83 | 194 | 4.3 | 10.4 | 0.00 | 0.00 | 0.00 | 69 | 1012.5 |
| 20260507183050 | 82 | 219 | 5.2 | 12.2 | 0.00 | 0.00 | 0.00 | 70 | 1012.5 |
| 20260507181555 | 83 | 138 | 4.3 | 10.4 | 0.00 | 0.00 | 0.00 | 69 | 1012.5 |
| 20260507180050 | 83 | 165 | 4.3 | 12.2 | 0.00 | 0.00 | 0.00 | 67 | 1012.3 |
| 20260507174556 | 85 | 117 | 3.5 | 8.7 | 0.00 | 0.00 | 0.00 | 64 | 1012.4 |
| 20260507173116 | 84 | 167 | 1.7 | 7.8 | 0.00 | 0.00 | 0.00 | 66 | 1012.3 |
| 20260507171549 | 84 | 129 | 0.0 | 4.3 | 0.00 | 0.00 | 0.00 | 60 | 1012.3 |
| 20260507170042 | 83 | 84 | 0.9 | 3.5 | 0.00 | 0.00 | 0.00 | 62 | 1012.5 |
| 20260507164547 | 82 | 19 | 0.9 | 5.2 | 0.00 | 0.00 | 0.00 | 66 | 1012.6 |
| 20260507163034 | 81 | 5 | 1.7 | 6.1 | 0.00 | 0.00 | 0.00 | 68 | 1012.7 |
| 20260507161536 | 79 | 332 | 0.9 | 6.1 | 0.00 | 0.00 | 0.00 | 74 | 1012.7 |
| 20260507160036 | 77 | 22 | 0.9 | 3.5 | 0.00 | 0.00 | 0.00 | 77 | 1012.9 |
| 20260507154525 | 77 | 17 | 0.9 | 4.3 | 0.00 | 0.00 | 0.00 | 78 | 1012.9 |
| 20260507153022 | 76 | 309 | 1.7 | 7.0 | 0.00 | 0.00 | 0.00 | 79 | 1012.7 |
| 20260507151520 | 76 | 315 | 0.9 | 6.1 | 0.00 | 0.00 | 0.00 | 80 | 1012.7 |
| 20260507150016 | 75 | 332 | 1.7 | 7.8 | 0.00 | 0.00 | 0.00 | 82 | 1012.8 |
| 20260507144514 | 73 | 316 | 0.9 | 5.2 | 0.00 | 0.00 | 0.00 | 85 | 1012.5 |
| 20260507143018 | 72 | 312 | 0.0 | 2.6 | 0.00 | 0.00 | 0.00 | 86 | 1012.4 |
| 20260507141508 | 72 | 332 | 0.0 | 3.5 | 0.00 | 0.00 | 0.00 | 86 | 1012.5 |
| 20260507140006 | 71 | 308 | 0.0 | 0.9 | 0.00 | 0.00 | 0.00 | 86 | 1012.4 |
| 20260507134512 | 71 | 308 | 0.0 | 1.7 | 0.00 | 0.00 | 0.00 | 86 | 1012.3 |
| 20260507133003 | 71 | 308 | 0.0 | 0.9 | 0.00 | 0.00 | 0.00 | 86 | 1012.2 |
| 20260507131503 | 70 | 308 | 0.0 | 1.7 | 0.00 | 0.00 | 0.00 | 86 | 1012.1 |
| 20260507130000 | 70 | 307 | 0.0 | 1.7 | 0.00 | 0.00 | 0.00 | 86 | 1011.7 |
| 20260507124559 | 70 | 307 | 0.0 | 0.0 | 0.00 | 0.00 | 0.00 | 85 | 1011.5 |
| 20260507123058 | 70 | 307 | 0.0 | 0.0 | 0.00 | 0.00 | 0.00 | 85 | 1011.4 |
| 20260507121559 | 71 | 307 | 0.0 | 0.0 | 0.00 | 0.00 | 0.00 | 85 | 1011.3 |
| 20260507114608 | 71 | 307 | 0.0 | 0.0 | 0.00 | 0.00 | 0.00 | 85 | 1010.9 |
| 20260507113055 | 71 | 307 | 0.0 | 2.6 | 0.00 | 0.00 | 0.00 | 85 | 1010.9 |
| 20260507111556 | 71 | 313 | 0.9 | 2.6 | 0.00 | 0.00 | 0.00 | 86 | 1010.7 |
| 20260507104553 | 71 | 317 | 0.0 | 2.6 | 0.00 | 0.00 | 0.00 | 86 | 1010.5 |
| 20260507103052 | 71 | 319 | 0.9 | 2.6 | 0.00 | 0.00 | 0.00 | 86 | 1010.4 |
| 20260507101558 | 71 | 159 | 0.0 | 1.7 | 0.00 | 0.00 | 0.00 | 86 | 1010.4 |
| 20260507100051 | 71 | 157 | 0.0 | 0.9 | 0.00 | 0.00 | 0.00 | 87 | 1010.3 |
| 20260507094555 | 71 | 144 | 0.0 | 1.7 | 0.00 | 0.00 | 0.00 | 87 | 1010.5 |
| 20260507093049 | 71 | 144 | 0.0 | 0.0 | 0.00 | 0.00 | 0.00 | 87 | 1010.4 |
| 20260507091548 | 71 | 144 | 0.0 | 0.0 | 0.00 | 0.00 | 0.00 | 87 | 1010.6 |
| 20260507090047 | 71 | 144 | 0.0 | 0.0 | 0.00 | 0.00 | 0.00 | 87 | 1010.8 |
| 20260507084545 | 71 | 144 | 0.0 | 0.0 | 0.00 | 0.00 | 0.00 | 87 | 1010.9 |
| 20260507083045 | 70 | 144 | 0.0 | 0.9 | 0.00 | 0.00 | 0.00 | 87 | 1011.0 |
| 20260507081547 | 71 | 143 | 0.0 | 0.0 | 0.00 | 0.00 | 0.00 | 87 | 1011.0 |
| 20260507080041 | 71 | 143 | 0.0 | 0.9 | 0.00 | 0.00 | 0.00 | 87 | 1011.2 |
| 20260507074540 | 71 | 143 | 0.0 | 0.0 | 0.00 | 0.00 | 0.00 | 87 | 1011.4 |
| 20260507073038 | 71 | 143 | 0.0 | 0.0 | 0.00 | 0.00 | 0.00 | 86 | 1011.5 |
| 20260507071538 | 71 | 143 | 0.0 | 0.0 | 0.00 | 0.00 | 0.00 | 86 | 1011.7 |
| 20260507070040 | 71 | 143 | 0.0 | 0.0 | 0.00 | 0.00 | 0.00 | 86 | 1011.9 |
| 20260507064542 | 72 | 143 | 0.0 | 0.0 | 0.00 | 0.00 | 0.00 | 86 | 1012.0 |
| 20260507063042 | 72 | 143 | 0.0 | 0.0 | 0.00 | 0.00 | 0.00 | 86 | 1012.1 |
| 20260507061537 | 72 | 143 | 0.0 | 0.0 | 0.00 | 0.00 | 0.00 | 85 | 1012.2 |
| 20260507060038 | 73 | 143 | 0.0 | 0.0 | 0.00 | 0.00 | 0.00 | 85 | 1012.3 |
| 20260507054532 | 73 | 143 | 0.0 | 0.0 | 0.00 | 0.00 | 0.00 | 85 | 1012.3 |
| 20260507053036 | 73 | 143 | 0.0 | 0.0 | 0.00 | 0.00 | 0.00 | 85 | 1012.4 |